Nassau, Bahamas

9:33 AM EST on February 23, 2017 (GMT -0500)
Nassau International

Weather History for MYNN - February, 2014

Change the Weather History Date:

Tuesday, February 4, 2014

  Actual Average Record
Temperature  
Mean Temperature 78 °F -  
Max Temperature 84 °F 78 °F 84 °F (2014)
Min Temperature 73 °F 62 °F 57 °F (2003)
Cooling Degree Days 14    
Growing Degree Days 28 (Base 50)    
Moisture  
Dew Point 72 °F    
Average Humidity 82    
Maximum Humidity 94    
Minimum Humidity 54    
Precipitation  
Precipitation 0.04 in 0.05 in - ()
Sea Level Pressure  
Sea Level Pressure 30.11 in    
Wind  
Wind Speed 7 mph ()    
Max Wind Speed 16 mph    
Max Gust Speed -    
Visibility 6.6 miles    
Events      
Averages and records for this station are not official NWS values.
T = Trace of Precipitation, MM = Missing Value Source: Averaged Metar Reports

Daily Weather History Graph

Daily Weather History Graph

Search for Another Location

Airport or City:

Trip Planner

Search our weather history database for the weather conditions in past years. The results will help you decide how hot, cold, wet, or windy it might be!

Date:

Astronomy

Feb. 04, 2014 Rise Set
Actual Time 6:51 AM EST 5:56 PM EST
Civil Twilight 6:27 AM EST 6:20 PM EST
Nautical Twilight 6:00 AM EST 6:47 PM EST
Astronomical Twilight 5:33 AM EST 7:14 PM EST
Moon 10:05 AM EST (2/4) 11:07 PM EST (2/4)
Length of Visible Light 11h 53m
Length of Day
11h 05m
Waxing Crescent, 29% of the Moon is Illuminated
Feb 4
Waxing Crescent
Feb 6
First Quarter
Feb 14
Full
Feb 22
Last Quarter
Mar 1
New

Hourly Weather History & Observations

Time (EST) Temp. Heat Index Dew Point Humidity Pressure Visibility Wind Dir Wind Speed Gust Speed Precip Events Conditions
12:00 AM 75.2 °F - 69.8 °F 83% 30.10 in 6.2 mi East 3.5 mph - N/A   Partly Cloudy
1:00 AM 75.2 °F - 73.4 °F 94% 30.10 in 6.2 mi East 3.5 mph - N/A   Partly Cloudy
2:00 AM 75.2 °F - 69.8 °F 83% 30.08 in 6.2 mi East 3.5 mph - N/A   Partly Cloudy
3:00 AM 73.4 °F - 71.6 °F 94% 30.06 in 6.2 mi East 4.6 mph - N/A   Partly Cloudy
5:00 AM 73.4 °F - 69.8 °F 88% 30.08 in 6.2 mi East 5.8 mph - N/A   Scattered Clouds
6:00 AM 73.4 °F - 69.8 °F 88% 30.09 in 6.2 mi East 4.6 mph - N/A   Scattered Clouds
7:00 AM 73.4 °F - 71.6 °F 94% 30.10 in 6.2 mi East 3.5 mph - N/A   Partly Cloudy
8:00 AM 75.2 °F - 69.8 °F 83% 30.14 in 6.2 mi East 4.6 mph - N/A   Partly Cloudy
9:00 AM 77.0 °F - 69.8 °F 78% 30.15 in 6.2 mi East 13.8 mph - N/A   Partly Cloudy
10:00 AM 80 °F - 74 °F 76% 30.17 in 8 mi ESE 13.8 mph - -   Scattered Clouds
10:00 AM 78.8 °F - 73.4 °F 83% 30.16 in 6.2 mi ESE 13.8 mph - N/A   Partly Cloudy
11:00 AM 80.6 °F 83.9 °F 69.8 °F 70% 30.15 in 6.2 mi ESE 16.1 mph - N/A   Unknown
12:00 PM 80.6 °F 83.9 °F 69.8 °F 70% 30.14 in 6.2 mi ESE 13.8 mph - N/A   Partly Cloudy
1:00 PM 83 °F - 73 °F 66% 30.12 in 8 mi ESE 9.2 mph - -   Partly Cloudy
1:00 PM 82.4 °F 88.2 °F 73.4 °F 74% 30.11 in 6.2 mi ESE 9.2 mph - N/A   Scattered Clouds
2:00 PM 82.4 °F 83.9 °F 64.4 °F 54% 30.09 in 6.2 mi ESE 16.1 mph - N/A   Scattered Clouds
3:00 PM 80.6 °F 83.2 °F 68.0 °F 65% 30.09 in 6.2 mi ESE 16.1 mph - N/A   Scattered Clouds
4:00 PM 81 °F - 74 °F 74% 30.09 in 9 mi ESE 13.8 mph - -   Partly Cloudy
4:00 PM 80.6 °F 85.4 °F 73.4 °F 79% 30.08 in 6.2 mi ESE 13.8 mph - N/A   Scattered Clouds
5:00 PM 77.0 °F - 71.6 °F 83% 30.08 in 6.2 mi East 13.8 mph - N/A   Mostly Cloudy
6:00 PM 75.2 °F - 71.6 °F 89% 30.09 in 6.2 mi East 11.5 mph - N/A   Mostly Cloudy
7:00 PM 77 °F - 75 °F 91% 30.10 in 8 mi East 9.2 mph - -   Mostly Cloudy
7:00 PM 77.0 °F - 75.2 °F 94% 30.09 in 6.2 mi East 9.2 mph - N/A   Mostly Cloudy
8:00 PM 75.2 °F - 71.6 °F 89% 30.10 in 6.2 mi East 6.9 mph - N/A   Scattered Clouds
9:00 PM 75.2 °F - 71.6 °F 89% 30.11 in 6.2 mi ESE 6.9 mph - N/A   Scattered Clouds
10:00 PM 77 °F - 75 °F 92% 30.13 in 8 mi ESE 9.2 mph - -   Partly Cloudy
10:00 PM 77.0 °F - 73.4 °F 89% 30.13 in 6.2 mi ESE 9.2 mph - N/A   Scattered Clouds